Time,TemperatureF,DewpointF,PressureIn,WindDirection,WindDirectionDegrees,WindSpeedMPH,WindSpeedGustMPH,Humidity,HourlyPrecipIn,Conditions,Clouds,dailyrainin,SoftwareType,DateUTC
2017-03-25 00:00:00,65.4,58.7,30.24,SE,142,0.0,13.0,79,0.00,,,0.00,Wunderground v.1.15,2017-03-25 04:00:00,
2017-03-25 00:10:00,65.2,58.5,30.24,SE,124,0.0,13.0,79,0.00,,,0.00,Wunderground v.1.15,2017-03-25 04:10:00,
2017-03-25 00:20:00,64.9,58.2,30.24,East,84,0.0,13.0,79,0.00,,,0.00,Wunderground v.1.15,2017-03-25 04:20:00,
2017-03-25 00:30:00,64.7,58.4,30.24,ENE,77,0.0,13.0,80,0.00,,,0.00,Wunderground v.1.15,2017-03-25 04:30:00,
2017-03-25 00:40:00,64.5,58.2,30.23,East,87,1.0,13.0,80,0.00,,,0.00,Wunderground v.1.15,2017-03-25 04:40:00,
2017-03-25 00:50:00,64.7,58.4,30.23,ESE,115,1.0,13.0,80,0.00,,,0.00,Wunderground v.1.15,2017-03-25 04:50:00,
2017-03-25 01:00:00,64.8,58.1,30.23,ESE,114,1.0,13.0,79,0.00,,,0.00,Wunderground v.1.15,2017-03-25 05:00:00,
2017-03-25 01:10:00,64.9,58.2,30.23,ESE,104,1.0,13.0,79,0.00,,,0.00,Wunderground v.1.15,2017-03-25 05:10:00,
2017-03-25 01:20:00,64.9,58.2,30.22,East,80,0.0,13.0,79,0.00,,,0.00,Wunderground v.1.15,2017-03-25 05:20:00,
2017-03-25 01:30:00,64.8,57.8,30.21,ESE,111,0.0,13.0,78,0.00,,,0.00,Wunderground v.1.15,2017-03-25 05:30:00,
2017-03-25 01:40:00,64.5,57.8,30.21,ENE,71,0.0,13.0,79,0.00,,,0.00,Wunderground v.1.15,2017-03-25 05:40:00,
2017-03-25 01:50:00,64.2,57.9,30.21,ENE,78,1.0,13.0,80,0.00,,,0.00,Wunderground v.1.15,2017-03-25 05:50:00,
2017-03-25 02:00:00,64.0,57.7,30.21,ESE,108,0.0,13.0,80,0.00,,,0.00,Wunderground v.1.15,2017-03-25 06:00:00,
2017-03-25 02:10:00,63.8,57.9,30.21,SE,129,0.0,13.0,81,0.00,,,0.00,Wunderground v.1.15,2017-03-25 06:10:00,
2017-03-25 02:20:00,63.5,57.2,30.21,ESE,122,0.0,13.0,80,0.00,,,0.00,Wunderground v.1.15,2017-03-25 06:20:00,
2017-03-25 02:30:00,63.1,57.2,30.20,ESE,122,0.0,13.0,81,0.00,,,0.00,Wunderground v.1.15,2017-03-25 06:30:00,
2017-03-25 02:40:00,62.6,57.0,30.20,ESE,121,0.0,13.0,82,0.00,,,0.00,Wunderground v.1.15,2017-03-25 06:40:00,
2017-03-25 02:50:00,62.1,56.9,30.20,ESE,121,0.0,13.0,83,0.00,,,0.00,Wunderground v.1.15,2017-03-25 06:50:00,
2017-03-25 03:00:00,61.6,56.4,30.20,ESE,121,0.0,13.0,83,0.00,,,0.00,Wunderground v.1.15,2017-03-25 07:00:00,
2017-03-25 03:10:00,61.0,56.5,30.19,ESE,121,0.0,13.0,85,0.00,,,0.00,Wunderground v.1.15,2017-03-25 07:10:00,
2017-03-25 03:20:00,60.5,56.3,30.19,ESE,120,0.0,13.0,86,0.00,,,0.00,Wunderground v.1.15,2017-03-25 07:20:00,
2017-03-25 03:30:00,60.1,56.2,30.19,ENE,74,0.0,13.0,87,0.00,,,0.00,Wunderground v.1.15,2017-03-25 07:30:00,
2017-03-25 03:40:00,60.0,56.4,30.19,East,93,0.0,13.0,88,0.00,,,0.00,Wunderground v.1.15,2017-03-25 07:40:00,
2017-03-25 03:50:00,60.1,56.5,30.18,East,83,0.0,13.0,88,0.00,,,0.00,Wunderground v.1.15,2017-03-25 07:50:00,
2017-03-25 04:00:00,60.2,56.6,30.17,ESE,115,0.0,13.0,88,0.00,,,0.00,Wunderground v.1.15,2017-03-25 08:00:00,
2017-03-25 04:10:00,60.2,56.6,30.17,ESE,115,0.0,13.0,88,0.00,,,0.00,Wunderground v.1.15,2017-03-25 08:10:00,
2017-03-25 04:20:00,60.2,56.6,30.17,ESE,115,0.0,13.0,88,0.00,,,0.00,Wunderground v.1.15,2017-03-25 08:20:00,
2017-03-25 04:30:00,60.0,56.4,30.17,ESE,115,0.0,13.0,88,0.00,,,0.00,Wunderground v.1.15,2017-03-25 08:30:00,
2017-03-25 04:40:00,59.8,56.2,30.17,ESE,115,0.0,13.0,88,0.00,,,0.00,Wunderground v.1.15,2017-03-25 08:40:00,
2017-03-25 04:50:00,59.6,56.4,30.16,ESE,115,0.0,13.0,89,0.00,,,0.00,Wunderground v.1.15,2017-03-25 08:50:00,
2017-03-25 05:00:00,59.5,56.3,30.16,ESE,115,0.0,13.0,89,0.00,,,0.00,Wunderground v.1.15,2017-03-25 09:00:00,
2017-03-25 05:10:00,59.5,56.6,30.16,ESE,115,0.0,13.0,90,0.00,,,0.00,Wunderground v.1.15,2017-03-25 09:10:00,
2017-03-25 05:20:00,59.5,56.6,30.16,ESE,115,0.0,13.0,90,0.00,,,0.00,Wunderground v.1.15,2017-03-25 09:20:00,
2017-03-25 05:30:00,59.5,56.3,30.15,ESE,115,0.0,13.0,89,0.00,,,0.00,Wunderground v.1.15,2017-03-25 09:30:00,
2017-03-25 05:40:00,59.4,56.2,30.15,ESE,115,0.0,13.0,89,0.00,,,0.00,Wunderground v.1.15,2017-03-25 09:40:00,
2017-03-25 05:50:00,59.4,56.5,30.15,ESE,115,0.0,13.0,90,0.00,,,0.00,Wunderground v.1.15,2017-03-25 09:50:00,
2017-03-25 06:00:00,59.4,56.5,30.15,ESE,115,0.0,13.0,90,0.00,,,0.00,Wunderground v.1.15,2017-03-25 10:00:00,
2017-03-25 06:10:00,59.3,56.4,30.15,ESE,115,0.0,13.0,90,0.00,,,0.00,Wunderground v.1.15,2017-03-25 10:10:00,
2017-03-25 06:20:00,59.1,56.2,30.14,ESE,115,0.0,13.0,90,0.00,,,0.00,Wunderground v.1.15,2017-03-25 10:20:00,
2017-03-25 06:30:00,59.0,56.1,30.15,ESE,115,0.0,13.0,90,0.00,,,0.00,Wunderground v.1.15,2017-03-25 10:30:00,
2017-03-25 06:40:00,58.6,55.4,30.15,ESE,115,0.0,13.0,89,0.00,,,0.00,Wunderground v.1.15,2017-03-25 10:40:00,
2017-03-25 06:50:00,58.3,55.1,30.15,ESE,115,0.0,13.0,89,0.00,,,0.00,Wunderground v.1.15,2017-03-25 10:50:00,
2017-03-25 07:00:00,57.9,55.3,30.15,ESE,115,0.0,13.0,91,0.00,,,0.00,Wunderground v.1.15,2017-03-25 11:00:00,
2017-03-25 07:10:00,57.9,55.9,30.15,ESE,115,0.0,13.0,93,0.00,,,0.00,Wunderground v.1.15,2017-03-25 11:10:00,
2017-03-25 07:20:00,58.1,56.4,30.16,ESE,115,0.0,13.0,94,0.00,,,0.00,Wunderground v.1.15,2017-03-25 11:20:00,
2017-03-25 07:30:00,58.2,56.5,30.16,ESE,115,0.0,13.0,94,0.00,,,0.00,Wunderground v.1.15,2017-03-25 11:30:00,
2017-03-25 07:40:00,58.4,56.7,30.17,ESE,115,0.0,13.0,94,0.00,,,0.00,Wunderground v.1.15,2017-03-25 11:40:00,
2017-03-25 07:50:00,58.5,56.8,30.17,ESE,115,0.0,13.0,94,0.00,,,0.00,Wunderground v.1.15,2017-03-25 11:50:00,
2017-03-25 08:00:00,58.7,57.0,30.17,ESE,115,0.0,13.0,94,0.00,,,0.00,Wunderground v.1.15,2017-03-25 12:00:00,
2017-03-25 08:10:00,58.7,57.0,30.17,ESE,115,0.0,13.0,94,0.00,,,0.00,Wunderground v.1.15,2017-03-25 12:10:00,
2017-03-25 08:20:00,58.7,57.0,30.17,ESE,115,0.0,13.0,94,0.00,,,0.00,Wunderground v.1.15,2017-03-25 12:20:00,
2017-03-25 08:30:00,59.0,57.6,30.17,ESE,115,0.0,13.0,95,0.00,,,0.00,Wunderground v.1.15,2017-03-25 12:30:00,
2017-03-25 08:35:00,59.3,58.2,30.18,ESE,115,0.0,13.0,96,0.00,,,0.00,Wunderground v.1.15,2017-03-25 12:35:00,
2017-03-25 08:40:00,59.9,58.8,30.18,ESE,115,0.0,13.0,96,0.00,,,0.00,Wunderground v.1.15,2017-03-25 12:40:00,
2017-03-25 08:45:00,60.5,59.4,30.19,ESE,115,0.0,13.0,96,0.00,,,0.00,Wunderground v.1.15,2017-03-25 12:45:00,
2017-03-25 08:50:00,61.3,60.4,30.19,ESE,115,0.0,13.0,97,0.00,,,0.00,Wunderground v.1.15,2017-03-25 12:50:00,
2017-03-25 08:55:00,62.1,61.2,30.19,SE,124,0.0,13.0,97,0.00,,,0.00,Wunderground v.1.15,2017-03-25 12:55:00,
2017-03-25 09:05:00,63.6,62.4,30.19,NE,47,1.0,13.0,96,0.00,,,0.00,Wunderground v.1.15,2017-03-25 13:05:00,
2017-03-25 09:10:00,64.5,62.4,30.19,NE,55,1.0,1.0,93,0.00,,,0.00,Wunderground v.1.15,2017-03-25 13:10:00,
2017-03-25 09:20:00,66.1,62.8,30.20,East,92,1.0,13.0,89,0.00,,,0.00,Wunderground v.1.15,2017-03-25 13:20:00,
2017-03-25 09:25:00,66.8,63.1,30.20,SSE,151,1.0,13.0,88,0.00,,,0.00,Wunderground v.1.15,2017-03-25 13:25:00,
2017-03-25 09:30:00,67.4,63.1,30.20,ESE,113,0.0,13.0,86,0.00,,,0.00,Wunderground v.1.15,2017-03-25 13:30:00,
2017-03-25 09:40:00,68.4,63.0,30.20,SE,126,0.0,13.0,83,0.00,,,0.00,Wunderground v.1.15,2017-03-25 13:40:00,
2017-03-25 09:45:00,68.8,62.7,30.20,SSE,155,1.0,13.0,81,0.00,,,0.00,Wunderground v.1.15,2017-03-25 13:45:00,
2017-03-25 09:50:00,69.2,62.8,30.20,SE,128,1.0,13.0,80,0.00,,,0.00,Wunderground v.1.15,2017-03-25 13:50:00,
2017-03-25 09:55:00,69.6,62.8,30.20,SE,132,1.0,13.0,79,0.00,,,0.00,Wunderground v.1.15,2017-03-25 13:55:00,
2017-03-25 10:00:00,70.1,62.6,30.21,ENE,68,1.0,13.0,77,0.00,,,0.00,Wunderground v.1.15,2017-03-25 14:00:00,
2017-03-25 10:10:00,71.0,62.3,30.21,SSE,155,2.0,13.0,74,0.00,,,0.00,Wunderground v.1.15,2017-03-25 14:10:00,
2017-03-25 10:15:00,71.4,62.3,30.21,SSE,149,2.0,13.0,73,0.00,,,0.00,Wunderground v.1.15,2017-03-25 14:15:00,
2017-03-25 10:20:00,71.8,61.9,30.21,SE,132,2.0,13.0,71,0.00,,,0.00,Wunderground v.1.15,2017-03-25 14:20:00,
2017-03-25 10:25:00,72.1,61.8,30.21,SE,126,3.0,13.0,70,0.00,,,0.00,Wunderground v.1.15,2017-03-25 14:25:00,
2017-03-25 10:35:00,72.7,61.5,30.21,SE,126,3.0,13.0,68,0.00,,,0.00,Wunderground v.1.15,2017-03-25 14:35:00,
2017-03-25 10:45:00,72.9,61.7,30.21,ESE,117,2.0,13.0,68,0.00,,,0.00,Wunderground v.1.15,2017-03-25 14:45:00,
2017-03-25 10:50:00,73.0,61.4,30.21,South,188,2.0,13.0,67,0.00,,,0.00,Wunderground v.1.15,2017-03-25 14:50:00,
2017-03-25 10:55:00,73.1,61.5,30.21,SE,134,3.0,13.0,67,0.00,,,0.00,Wunderground v.1.15,2017-03-25 14:55:00,
2017-03-25 11:00:00,73.1,61.5,30.22,SE,130,2.0,13.0,67,0.00,,,0.00,Wunderground v.1.15,2017-03-25 15:00:00,
2017-03-25 11:10:00,73.4,61.3,30.22,South,178,2.0,13.0,66,0.00,,,0.00,Wunderground v.1.15,2017-03-25 15:10:00,
2017-03-25 11:15:00,73.6,61.1,30.22,ESE,123,2.0,13.0,65,0.00,,,0.00,Wunderground v.1.15,2017-03-25 15:15:00,
2017-03-25 11:20:00,74.1,61.1,30.22,SE,144,3.0,3.0,64,0.00,,,0.00,Wunderground v.1.15,2017-03-25 15:20:00,
2017-03-25 11:25:00,74.7,61.7,30.22,SSE,161,3.0,13.0,64,0.00,,,0.00,Wunderground v.1.15,2017-03-25 15:25:00,
2017-03-25 11:30:00,75.4,62.8,30.22,South,176,2.0,2.0,65,0.00,,,0.00,Wunderground v.1.15,2017-03-25 15:30:00,
2017-03-25 11:40:00,76.2,61.3,30.22,SSE,155,2.0,13.0,60,0.00,,,0.00,Wunderground v.1.15,2017-03-25 15:40:00,
2017-03-25 11:45:00,76.4,61.0,30.21,NNE,33,3.0,13.0,59,0.00,,,0.00,Wunderground v.1.15,2017-03-25 15:45:00,
2017-03-25 11:50:00,76.7,62.2,30.22,NE,42,2.0,13.0,61,0.00,,,0.00,Wunderground v.1.15,2017-03-25 15:50:00,
2017-03-25 11:55:00,76.8,60.4,30.21,ESE,112,1.0,13.0,57,0.00,,,0.00,Wunderground v.1.15,2017-03-25 15:55:00,
2017-03-25 12:05:00,77.4,61.0,30.21,SE,128,2.0,3.0,57,0.00,,,0.00,Wunderground v.1.15,2017-03-25 16:05:00,
2017-03-25 12:10:00,77.9,60.9,30.21,East,101,2.0,2.0,56,0.00,,,0.00,Wunderground v.1.15,2017-03-25 16:10:00,
2017-03-25 12:15:00,78.2,60.7,30.21,SE,141,2.0,13.0,55,0.00,,,0.00,Wunderground v.1.15,2017-03-25 16:15:00,
2017-03-25 12:20:00,78.1,61.1,30.21,East,98,2.0,2.0,56,0.00,,,0.00,Wunderground v.1.15,2017-03-25 16:20:00,
2017-03-25 12:30:00,78.3,60.3,30.21,SE,145,2.0,2.0,54,0.00,,,0.00,Wunderground v.1.15,2017-03-25 16:30:00,
2017-03-25 12:35:00,78.4,60.4,30.21,SSE,155,2.0,13.0,54,0.00,,,0.00,Wunderground v.1.15,2017-03-25 16:35:00,
2017-03-25 12:40:00,78.5,59.9,30.20,SSE,163,1.0,1.0,53,0.00,,,0.00,Wunderground v.1.15,2017-03-25 16:40:00,
2017-03-25 12:45:00,78.7,60.7,30.20,SE,127,2.0,3.0,54,0.00,,,0.00,Wunderground v.1.15,2017-03-25 16:45:00,
2017-03-25 12:50:00,79.2,60.6,30.20,WSW,249,2.0,13.0,53,0.00,,,0.00,Wunderground v.1.15,2017-03-25 16:50:00,
2017-03-25 12:55:00,79.9,59.6,30.19,South,188,2.0,13.0,50,0.00,,,0.00,Wunderground v.1.15,2017-03-25 16:55:00,
2017-03-25 13:05:00,80.8,58.7,30.20,SSE,164,4.0,13.0,47,0.00,,,0.00,Wunderground v.1.15,2017-03-25 17:05:00,
2017-03-25 13:10:00,81.1,59.6,30.19,SSE,157,4.0,4.0,48,0.00,,,0.00,Wunderground v.1.15,2017-03-25 17:10:00,
2017-03-25 13:15:00,81.2,59.1,30.19,ESE,104,2.0,13.0,47,0.00,,,0.00,Wunderground v.1.15,2017-03-25 17:15:00,
2017-03-25 13:20:00,81.0,60.6,30.18,ENE,77,2.0,13.0,50,0.00,,,0.00,Wunderground v.1.15,2017-03-25 17:20:00,
2017-03-25 13:25:00,81.2,60.8,30.18,ENE,65,2.0,13.0,50,0.00,,,0.00,Wunderground v.1.15,2017-03-25 17:25:00,
2017-03-25 13:35:00,80.9,59.9,30.17,SE,127,2.0,13.0,49,0.00,,,0.00,Wunderground v.1.15,2017-03-25 17:35:00,
2017-03-25 13:40:00,80.4,58.3,30.17,SE,140,1.0,13.0,47,0.00,,,0.00,Wunderground v.1.15,2017-03-25 17:40:00,
2017-03-25 13:45:00,80.1,56.8,30.17,SE,140,0.0,13.0,45,0.00,,,0.00,Wunderground v.1.15,2017-03-25 17:45:00,
2017-03-25 13:50:00,80.1,59.8,30.17,SSW,193,0.0,13.0,50,0.00,,,0.00,Wunderground v.1.15,2017-03-25 17:50:00,
2017-03-25 13:55:00,80.4,58.3,30.16,SE,128,2.0,13.0,47,0.00,,,0.00,Wunderground v.1.15,2017-03-25 17:55:00,
2017-03-25 14:05:00,80.8,57.5,30.15,SE,144,2.0,13.0,45,0.00,,,0.00,Wunderground v.1.15,2017-03-25 18:05:00,
2017-03-25 14:10:00,80.7,57.4,30.15,SE,124,2.0,2.0,45,0.00,,,0.00,Wunderground v.1.15,2017-03-25 18:10:00,
2017-03-25 14:15:00,80.4,57.7,30.15,ESE,122,2.0,13.0,46,0.00,,,0.00,Wunderground v.1.15,2017-03-25 18:15:00,
2017-03-25 14:20:00,80.0,57.4,30.15,NE,50,2.0,2.0,46,0.00,,,0.00,Wunderground v.1.15,2017-03-25 18:20:00,
2017-03-25 14:30:00,79.6,57.0,30.14,SE,139,2.0,2.0,46,0.00,,,0.00,Wunderground v.1.15,2017-03-25 18:30:00,
2017-03-25 14:35:00,79.7,56.5,30.14,SE,146,2.0,13.0,45,0.00,,,0.00,Wunderground v.1.15,2017-03-25 18:35:00,
2017-03-25 14:40:00,79.7,57.1,30.14,NE,56,2.0,13.0,46,0.00,,,0.00,Wunderground v.1.15,2017-03-25 18:40:00,
2017-03-25 14:45:00,79.7,56.5,30.14,SE,132,2.0,13.0,45,0.00,,,0.00,Wunderground v.1.15,2017-03-25 18:45:00,
2017-03-25 14:50:00,79.9,57.9,30.13,ESE,106,2.0,13.0,47,0.00,,,0.00,Wunderground v.1.15,2017-03-25 18:50:00,
2017-03-25 14:55:00,80.1,57.5,30.13,ESE,102,2.0,13.0,46,0.00,,,0.00,Wunderground v.1.15,2017-03-25 18:55:00,
2017-03-25 15:05:00,80.4,57.7,30.13,SE,128,2.0,13.0,46,0.00,,,0.00,Wunderground v.1.15,2017-03-25 19:05:00,
2017-03-25 15:10:00,80.9,57.6,30.12,South,173,2.0,2.0,45,0.00,,,0.00,Wunderground v.1.15,2017-03-25 19:10:00,
2017-03-25 15:15:00,80.7,57.4,30.12,ESE,115,3.0,3.0,45,0.00,,,0.00,Wunderground v.1.15,2017-03-25 19:15:00,
2017-03-25 15:25:00,81.0,57.0,30.11,East,87,2.0,13.0,44,0.00,,,0.00,Wunderground v.1.15,2017-03-25 19:25:00,
2017-03-25 15:40:00,80.5,58.4,30.11,East,94,2.0,2.0,47,0.00,,,0.00,Wunderground v.1.15,2017-03-25 19:40:00,
2017-03-25 15:45:00,80.5,57.8,30.11,SE,127,2.0,5.0,46,0.00,,,0.00,Wunderground v.1.15,2017-03-25 19:45:00,
2017-03-25 15:50:00,80.8,58.7,30.11,ESE,116,4.0,4.0,47,0.00,,,0.00,Wunderground v.1.15,2017-03-25 19:50:00,
2017-03-25 16:00:00,80.4,58.3,30.10,South,184,4.0,4.0,47,0.00,,,0.00,Wunderground v.1.15,2017-03-25 20:00:00,
2017-03-25 16:05:00,80.3,58.2,30.10,SE,144,4.0,13.0,47,0.00,,,0.00,Wunderground v.1.15,2017-03-25 20:05:00,
2017-03-25 16:10:00,80.0,58.5,30.10,SE,136,4.0,4.0,48,0.00,,,0.00,Wunderground v.1.15,2017-03-25 20:10:00,
2017-03-25 16:15:00,79.7,58.3,30.10,SE,133,3.0,5.0,48,0.00,,,0.00,Wunderground v.1.15,2017-03-25 20:15:00,
2017-03-25 16:20:00,79.5,58.1,30.10,SE,139,3.0,13.0,48,0.00,,,0.00,Wunderground v.1.15,2017-03-25 20:20:00,
2017-03-25 16:30:00,80.4,58.9,30.09,ESE,123,2.0,13.0,48,0.00,,,0.00,Wunderground v.1.15,2017-03-25 20:30:00,
2017-03-25 16:35:00,81.2,59.6,30.09,SE,126,3.0,13.0,48,0.00,,,0.00,Wunderground v.1.15,2017-03-25 20:35:00,
2017-03-25 16:40:00,81.8,59.6,30.09,SE,132,3.0,3.0,47,0.00,,,0.00,Wunderground v.1.15,2017-03-25 20:40:00,
2017-03-25 16:50:00,80.6,59.1,30.09,ENE,73,3.0,3.0,48,0.00,,,0.00,Wunderground v.1.15,2017-03-25 20:50:00,
2017-03-25 16:55:00,80.0,58.0,30.08,East,82,2.0,4.0,47,0.00,,,0.00,Wunderground v.1.15,2017-03-25 20:55:00,
2017-03-25 17:00:00,79.9,59.0,30.08,SE,130,3.0,3.0,49,0.00,,,0.00,Wunderground v.1.15,2017-03-25 21:00:00,
2017-03-25 17:10:00,80.6,58.5,30.08,East,101,2.0,2.0,47,0.00,,,0.00,Wunderground v.1.15,2017-03-25 21:10:00,
2017-03-25 17:15:00,80.6,58.5,30.08,ENE,77,3.0,3.0,47,0.00,,,0.00,Wunderground v.1.15,2017-03-25 21:15:00,
2017-03-25 17:20:00,80.4,58.3,30.08,ESE,115,2.0,2.0,47,0.00,,,0.00,Wunderground v.1.15,2017-03-25 21:20:00,
2017-03-25 17:25:00,80.5,58.4,30.08,SSE,157,1.0,13.0,47,0.00,,,0.00,Wunderground v.1.15,2017-03-25 21:25:00,
2017-03-25 17:35:00,80.0,58.5,30.08,ESE,122,3.0,3.0,48,0.00,,,0.00,Wunderground v.1.15,2017-03-25 21:35:00,
2017-03-25 17:40:00,79.5,58.1,30.08,ESE,106,2.0,13.0,48,0.00,,,0.00,Wunderground v.1.15,2017-03-25 21:40:00,
2017-03-25 17:45:00,79.1,58.3,30.08,ESE,103,2.0,13.0,49,0.00,,,0.00,Wunderground v.1.15,2017-03-25 21:45:00,
2017-03-25 17:55:00,78.7,57.4,30.07,SE,140,3.0,13.0,48,0.00,,,0.00,Wunderground v.1.15,2017-03-25 21:55:00,
2017-03-25 18:05:00,78.9,57.5,30.07,SE,128,3.0,7.0,48,0.00,,,0.00,Wunderground v.1.15,2017-03-25 22:05:00,
2017-03-25 18:10:00,78.8,56.9,30.07,ESE,122,4.0,13.0,47,0.00,,,0.00,Wunderground v.1.15,2017-03-25 22:10:00,
2017-03-25 18:15:00,78.6,57.3,30.07,ENE,74,3.0,13.0,48,0.00,,,0.00,Wunderground v.1.15,2017-03-25 22:15:00,
2017-03-25 18:25:00,78.4,57.1,30.07,ENE,64,2.0,3.0,48,0.00,,,0.00,Wunderground v.1.15,2017-03-25 22:25:00,
2017-03-25 18:30:00,78.3,57.6,30.07,ENE,70,2.0,2.0,49,0.00,,,0.00,Wunderground v.1.15,2017-03-25 22:30:00,
2017-03-25 18:35:00,78.2,57.5,30.07,ESE,107,2.0,3.0,49,0.00,,,0.00,Wunderground v.1.15,2017-03-25 22:35:00,
2017-03-25 18:40:00,77.9,57.2,30.07,NE,46,3.0,3.0,49,0.00,,,0.00,Wunderground v.1.15,2017-03-25 22:40:00,
2017-03-25 18:45:00,77.6,57.5,30.07,East,84,2.0,13.0,50,0.00,,,0.00,Wunderground v.1.15,2017-03-25 22:45:00,
2017-03-25 18:55:00,77.2,59.3,30.07,ESE,120,2.0,13.0,54,0.00,,,0.00,Wunderground v.1.15,2017-03-25 22:55:00,
2017-03-25 19:00:00,76.8,59.4,30.07,SE,133,2.0,2.0,55,0.00,,,0.00,Wunderground v.1.15,2017-03-25 23:00:00,
2017-03-25 19:05:00,76.6,59.2,30.07,ESE,110,2.0,13.0,55,0.00,,,0.00,Wunderground v.1.15,2017-03-25 23:05:00,
2017-03-25 19:10:00,76.3,59.9,30.07,NE,54,1.0,1.0,57,0.00,,,0.00,Wunderground v.1.15,2017-03-25 23:10:00,
2017-03-25 19:20:00,75.8,60.0,30.07,East,96,1.0,1.0,58,0.00,,,0.00,Wunderground v.1.15,2017-03-25 23:20:00,
2017-03-25 19:25:00,75.5,59.2,30.07,SE,134,2.0,3.0,57,0.00,,,0.00,Wunderground v.1.15,2017-03-25 23:25:00,
2017-03-25 19:30:00,75.1,59.3,30.07,ENE,63,2.0,13.0,58,0.00,,,0.00,Wunderground v.1.15,2017-03-25 23:30:00,
2017-03-25 19:35:00,74.7,58.9,30.07,East,96,2.0,13.0,58,0.00,,,0.00,Wunderground v.1.15,2017-03-25 23:35:00,
2017-03-25 19:45:00,74.2,58.9,30.06,ESE,122,2.0,13.0,59,0.00,,,0.00,Wunderground v.1.15,2017-03-25 23:45:00,
2017-03-25 19:50:00,73.9,58.7,30.07,East,101,1.0,13.0,59,0.00,,,0.00,Wunderground v.1.15,2017-03-25 23:50:00,
2017-03-25 19:55:00,73.6,58.9,30.07,East,94,1.0,13.0,60,0.00,,,0.00,Wunderground v.1.15,2017-03-25 23:55:00,
2017-03-25 20:00:00,73.3,58.6,30.07,East,89,1.0,1.0,60,0.00,,,0.00,Wunderground v.1.15,2017-03-26 00:00:00,
2017-03-25 20:10:00,72.8,59.0,30.08,ENE,57,1.0,13.0,62,0.00,,,0.00,Wunderground v.1.15,2017-03-26 00:10:00,
2017-03-25 20:15:00,72.5,58.7,30.08,ESE,103,1.0,13.0,62,0.00,,,0.00,Wunderground v.1.15,2017-03-26 00:15:00,
2017-03-25 20:20:00,72.2,58.9,30.08,NE,51,0.0,13.0,63,0.00,,,0.00,Wunderground v.1.15,2017-03-26 00:20:00,
2017-03-25 20:25:00,72.0,58.7,30.08,ESE,103,0.0,13.0,63,0.00,,,0.00,Wunderground v.1.15,2017-03-26 00:25:00,
2017-03-25 20:30:00,71.7,58.9,30.08,ENE,59,0.0,13.0,64,0.00,,,0.00,Wunderground v.1.15,2017-03-26 00:30:00,
2017-03-25 20:40:00,71.3,58.9,30.08,ESE,119,0.0,13.0,65,0.00,,,0.00,Wunderground v.1.15,2017-03-26 00:40:00,
2017-03-25 20:50:00,71.0,59.1,30.09,ESE,113,0.0,13.0,66,0.00,,,0.00,Wunderground v.1.15,2017-03-26 00:50:00,
2017-03-25 20:55:00,70.7,58.8,30.09,ESE,119,0.0,13.0,66,0.00,,,0.00,Wunderground v.1.15,2017-03-26 00:55:00,
2017-03-25 21:00:00,70.6,58.7,30.09,NE,47,0.0,13.0,66,0.00,,,0.00,Wunderground v.1.15,2017-03-26 01:00:00,
2017-03-25 21:05:00,70.4,58.5,30.09,ESE,116,0.0,13.0,66,0.00,,,0.00,Wunderground v.1.15,2017-03-26 01:05:00,
2017-03-25 21:10:00,70.3,58.8,30.09,ESE,116,0.0,13.0,67,0.00,,,0.00,Wunderground v.1.15,2017-03-26 01:10:00,
2017-03-25 21:15:00,70.1,58.6,30.09,ENE,74,0.0,13.0,67,0.00,,,0.00,Wunderground v.1.15,2017-03-26 01:15:00,
2017-03-25 21:20:00,69.9,58.9,30.09,ENE,74,0.0,13.0,68,0.00,,,0.00,Wunderground v.1.15,2017-03-26 01:20:00,
2017-03-25 21:25:00,69.7,59.1,30.10,ENE,74,0.0,13.0,69,0.00,,,0.00,Wunderground v.1.15,2017-03-26 01:25:00,
2017-03-25 21:30:00,69.4,58.8,30.10,ENE,74,0.0,13.0,69,0.00,,,0.00,Wunderground v.1.15,2017-03-26 01:30:00,
2017-03-25 21:40:00,68.9,58.7,30.09,SE,129,0.0,13.0,70,0.00,,,0.00,Wunderground v.1.15,2017-03-26 01:40:00,
2017-03-25 21:45:00,68.8,58.6,30.10,SE,132,0.0,13.0,70,0.00,,,0.00,Wunderground v.1.15,2017-03-26 01:45:00,
2017-03-25 21:50:00,68.7,58.5,30.10,SE,140,0.0,13.0,70,0.00,,,0.00,Wunderground v.1.15,2017-03-26 01:50:00,
2017-03-25 21:55:00,68.6,58.4,30.10,ESE,119,0.0,13.0,70,0.00,,,0.00,Wunderground v.1.15,2017-03-26 01:55:00,
2017-03-25 22:00:00,68.6,58.4,30.10,ESE,123,0.0,13.0,70,0.00,,,0.00,Wunderground v.1.15,2017-03-26 02:00:00,